Flag for Slovakia Weather past 2 weeks in Bratislava, Slovakia

Now
79 °F

Passing clouds.


Feels Like: 78 °F
Forecast: 54 / 78 °F
Wind: 12 mph from Northeast

Location: Bratislava Ivanka

Current Time: Jul 31, 2015 at 5:25:50 PM

Latest Report: Jul 31, 2015 at 5:00 PM


Visibility: N/A

Pressure: 30.01 "Hg

Humidity: 21%

Dew point: 36 °F

Location of BratislavaLocation

Historic Weather in Bratislava — Graph

°F

Bratislava temperature yesterday

Maximum temperature yesterday: 77 °F (at 3:30 PM)
Minimum temperature yesterday: 59 °F (at 5:30 AM)
Average temperature yesterday: 67 °F

Past Weeks' High & Low Weather Summary

 TemperatureHumidityPressure
High97 °F (Jul 17, 5:00 PM)94% (Jul 27, 3:00 AM)30.07 "Hg (Jul 27, 3:00 AM)
Low57 °F (Jul 27, 2:00 AM)21% (Jul 31, 3:30 PM)29.71 "Hg (Jul 25, 2:00 PM)
Average76 °F55%29.91 "Hg
* Reported Jul 16 4:00 PM — Jul 31 4:00 PM, Bratislava, Weather by CustomWeather, © 2015

Note: Actual official high and low records may vary slightly from our data, if they occured in-between our weather recording intervals... More about our weather records

Advertising

Bratislava weather history for previous 24 hours

 ConditionsComfort  
Time TempWeatherWind HumidityBarometerVisibility
4:00 PM
Fri, Jul 31
79 °FPassing clouds.13 mph21%30.04 "HgN/A
3:30 PM79 °FPassing clouds.12 mph21%30.04 "HgN/A
3:00 PM75 °FPassing clouds.10 mph24%30.04 "HgN/A
2:30 PM77 °FSunny.13 mph24%30.04 "Hg10 mi
2:00 PM77 °FSunny.12 mph24%30.04 "Hg10 mi
1:30 PM77 °FPassing clouds.14 mph24%30.04 "HgN/A
1:00 PM75 °FPassing clouds.7 mph25%30.04 "HgN/A
12:30 PM75 °FPassing clouds.12 mph25%30.04 "HgN/A
12:00 PM75 °FPassing clouds.8 mph25%30.04 "HgN/A
11:30 AM75 °FPassing clouds.13 mph25%30.04 "HgN/A
11:00 AM75 °FPassing clouds.9 mph25%30.04 "HgN/A
10:30 AM73 °FSunny.8 mph29%30.04 "Hg10 mi
10:00 AM70 °FSunny.8 mph40%30.04 "Hg10 mi
9:30 AM70 °FSunny.7 mph38%30.04 "Hg10 mi
9:00 AM66 °FSunny.7 mph46%30.04 "Hg10 mi
8:30 AM66 °FSunny.8 mph49%30.04 "Hg10 mi
8:00 AM66 °FPassing clouds.5 mph49%30.04 "HgN/A
7:30 AM64 °FScattered clouds.2 mph52%30.01 "HgN/A
7:00 AM64 °FLight rain. Scattered clouds.3 mph52%30.01 "HgN/A
6:30 AM63 °FScattered clouds.5 mph64%30.01 "HgN/A
6:00 AM64 °FPassing clouds.2 mph56%30.01 "HgN/A
5:30 AM64 °FClear.No wind60%30.01 "Hg10 mi
5:00 AM64 °FClear.5 mph56%30.01 "Hg10 mi
4:30 AM64 °FClear.5 mph52%30.01 "Hg10 mi
4:00 AM64 °FClear.2 mph60%30.01 "Hg10 mi
3:30 AM64 °FClear.No wind60%30.01 "Hg10 mi
3:00 AM64 °FClear.3 mph56%30.01 "Hg10 mi
2:30 AM66 °FClear.3 mph52%29.98 "Hg10 mi
2:00 AM64 °FClear.3 mph60%29.98 "Hg10 mi
1:30 AM64 °FClear.No wind60%29.98 "Hg10 mi
1:00 AM66 °FPassing clouds.3 mph56%29.98 "HgN/A
12:00 AM66 °FClear.6 mph64%29.98 "Hg10 mi
11:30 PM
Thu, Jul 30
64 °FClear.8 mph73%29.98 "Hg10 mi
11:00 PM63 °FClear.5 mph73%29.98 "Hg10 mi
10:30 PM64 °FClear.2 mph68%29.98 "Hg10 mi
10:00 PM64 °FClear.3 mph64%29.98 "Hg10 mi
9:30 PM66 °FSunny.6 mph60%29.98 "Hg10 mi
9:00 PM68 °FSunny.10 mph56%29.95 "Hg10 mi
8:30 PM70 °FSunny.12 mph50%29.95 "Hg10 mi
8:00 PM70 °FSunny.9 mph50%29.95 "Hg10 mi
7:30 PM72 °FSunny.12 mph47%29.95 "Hg10 mi
7:00 PM72 °FSunny.14 mph47%29.95 "Hg10 mi
6:30 PM73 °FPassing clouds.9 mph33%29.92 "HgN/A
6:00 PM77 °FPassing clouds.8 mph30%29.95 "HgN/A
5:30 PM75 °FPassing clouds.6 mph34%29.95 "HgN/A
5:00 PM75 °FPassing clouds.9 mph31%29.95 "HgN/A
Weather by CustomWeather, © 2015

See weather overviewHow to use our weather pages